Time,TemperatureF,DewpointF,PressureIn,WindDirection,WindDirectionDegrees,WindSpeedMPH,WindSpeedGustMPH,Humidity,HourlyPrecipIn,Conditions,Clouds,dailyrainin,SolarRadiationWatts/m^2,SoftwareType,DateUTC
2013-12-18 00:06:00,62.8,61.0,30.16,West,277,2.0,4.0,92,0.00,,,0.01,0,weatherlink.com 1.10,2013-12-18 05:06:00,
2013-12-18 00:21:00,61.7,59.0,30.16,WSW,239,1.0,4.0,92,0.00,,,0.01,0,weatherlink.com 1.10,2013-12-18 05:21:00,
2013-12-18 00:36:00,60.8,59.0,30.15,WSW,249,1.0,4.0,93,0.00,,,0.01,0,weatherlink.com 1.10,2013-12-18 05:36:00,
2013-12-18 00:51:00,60.2,58.0,30.15,West,278,0.0,3.0,93,0.00,,,0.01,0,weatherlink.com 1.10,2013-12-18 05:51:00,
2013-12-18 01:06:00,59.7,58.0,30.15,West,268,0.0,3.0,94,0.00,,,0.01,0,weatherlink.com 1.10,2013-12-18 06:06:00,
2013-12-18 01:21:00,59.5,58.0,30.15,West,265,2.0,4.0,94,0.00,,,0.01,0,weatherlink.com 1.10,2013-12-18 06:21:00,
2013-12-18 01:36:00,59.3,58.0,30.15,WSW,244,2.0,3.0,94,0.00,,,0.01,0,weatherlink.com 1.10,2013-12-18 06:36:00,
2013-12-18 01:51:00,58.9,58.0,30.15,WSW,256,1.0,4.0,95,0.00,,,0.01,0,weatherlink.com 1.10,2013-12-18 06:51:00,
2013-12-18 02:06:00,58.5,57.0,30.15,NW,317,1.0,4.0,95,0.00,,,0.00,0,weatherlink.com 1.10,2013-12-18 07:06:00,
2013-12-18 02:21:00,58.3,57.0,30.15,NW,308,1.0,6.0,95,0.00,,,0.00,0,weatherlink.com 1.10,2013-12-18 07:21:00,
2013-12-18 02:36:00,58.1,57.0,30.15,NNW,348,1.0,6.0,95,0.00,,,0.00,0,weatherlink.com 1.10,2013-12-18 07:36:00,
2013-12-18 02:51:00,58.0,57.0,30.16,NW,323,2.0,5.0,95,0.00,,,0.00,0,weatherlink.com 1.10,2013-12-18 07:51:00,
2013-12-18 03:06:00,57.8,56.0,30.16,WNW,284,2.0,7.0,95,0.00,,,0.00,0,weatherlink.com 1.10,2013-12-18 08:06:00,
2013-12-18 03:21:00,57.6,56.0,30.16,West,279,2.0,6.0,95,0.00,,,0.00,0,weatherlink.com 1.10,2013-12-18 08:21:00,
2013-12-18 03:36:00,57.3,56.0,30.16,West,279,4.0,6.0,95,0.00,,,0.00,0,weatherlink.com 1.10,2013-12-18 08:36:00,
2013-12-18 03:51:00,57.0,56.0,30.16,WSW,238,1.0,7.0,95,0.00,,,0.00,0,weatherlink.com 1.10,2013-12-18 08:51:00,
2013-12-18 04:06:00,56.6,55.0,30.16,NW,318,2.0,4.0,95,0.00,,,0.00,0,weatherlink.com 1.10,2013-12-18 09:06:00,
2013-12-18 04:21:00,56.1,55.0,30.16,West,261,0.0,6.0,95,0.00,,,0.00,0,weatherlink.com 1.10,2013-12-18 09:21:00,
2013-12-18 04:36:00,55.6,54.0,30.16,West,276,1.0,4.0,95,0.00,,,0.00,0,weatherlink.com 1.10,2013-12-18 09:36:00,
2013-12-18 04:52:00,55.2,54.0,30.16,West,273,1.0,5.0,94,0.00,,,0.00,0,weatherlink.com 1.10,2013-12-18 09:52:00,
2013-12-18 05:07:00,54.7,53.0,30.16,WSW,243,2.0,4.0,93,0.00,,,0.00,0,weatherlink.com 1.10,2013-12-18 10:07:00,
2013-12-18 05:22:00,53.9,52.0,30.17,West,280,0.0,4.0,93,0.00,,,0.00,0,weatherlink.com 1.10,2013-12-18 10:22:00,
2013-12-18 05:37:00,53.3,51.0,30.17,WSW,251,1.0,3.0,92,0.00,,,0.00,0,weatherlink.com 1.10,2013-12-18 10:37:00,
2013-12-18 05:52:00,53.1,51.0,30.18,NW,325,0.0,3.0,92,0.00,,,0.00,0,weatherlink.com 1.10,2013-12-18 10:52:00,
2013-12-18 06:07:00,53.0,51.0,30.18,WNW,286,1.0,4.0,91,0.00,,,0.00,0,weatherlink.com 1.10,2013-12-18 11:07:00,
2013-12-18 06:22:00,53.1,50.0,30.19,WSW,254,2.0,4.0,90,0.00,,,0.00,0,weatherlink.com 1.10,2013-12-18 11:22:00,
2013-12-18 06:37:00,53.1,50.0,30.19,NW,305,1.0,5.0,89,0.00,,,0.00,0,weatherlink.com 1.10,2013-12-18 11:37:00,
2013-12-18 06:52:00,52.9,50.0,30.19,West,260,2.0,4.0,88,0.00,,,0.00,0,weatherlink.com 1.10,2013-12-18 11:52:00,
2013-12-18 07:07:00,52.7,49.0,30.20,WSW,257,2.0,4.0,88,0.00,,,0.00,5,weatherlink.com 1.10,2013-12-18 12:07:00,
2013-12-18 07:22:00,52.4,49.0,30.20,West,271,1.0,4.0,88,0.00,,,0.00,14,weatherlink.com 1.10,2013-12-18 12:22:00,
2013-12-18 07:37:00,52.8,49.0,30.20,West,267,1.0,5.0,88,0.00,,,0.00,42,weatherlink.com 1.10,2013-12-18 12:37:00,
2013-12-18 07:52:00,53.9,50.0,30.21,SSW,195,3.0,5.0,87,0.00,,,0.00,77,weatherlink.com 1.10,2013-12-18 12:52:00,
2013-12-18 08:07:00,55.5,50.0,30.21,NW,307,3.0,6.0,83,0.00,,,0.00,130,weatherlink.com 1.10,2013-12-18 13:07:00,
2013-12-18 08:22:00,57.2,51.0,30.22,WNW,287,0.0,9.0,80,0.00,,,0.00,185,weatherlink.com 1.10,2013-12-18 13:22:00,
2013-12-18 08:37:00,58.4,51.0,30.22,West,267,6.0,7.0,77,0.00,,,0.00,230,weatherlink.com 1.10,2013-12-18 13:37:00,
2013-12-18 08:52:00,59.3,52.0,30.23,NW,317,4.0,10.0,76,0.00,,,0.00,278,weatherlink.com 1.10,2013-12-18 13:52:00,
2013-12-18 09:07:00,60.3,53.0,30.23,WNW,298,4.0,8.0,76,0.00,,,0.00,323,weatherlink.com 1.10,2013-12-18 14:07:00,
2013-12-18 09:22:00,61.8,54.0,30.24,NNW,342,2.0,8.0,75,0.00,,,0.00,364,weatherlink.com 1.10,2013-12-18 14:22:00,
2013-12-18 09:37:00,63.5,54.0,30.24,WNW,296,3.0,10.0,72,0.00,,,0.00,404,weatherlink.com 1.10,2013-12-18 14:37:00,
2013-12-18 09:53:00,65.1,54.0,30.24,NW,326,3.0,12.0,68,0.00,,,0.00,443,weatherlink.com 1.10,2013-12-18 14:53:00,
2013-12-18 10:08:00,65.7,52.0,30.24,NNW,344,5.0,14.0,62,0.00,,,0.00,475,weatherlink.com 1.10,2013-12-18 15:08:00,
2013-12-18 10:23:00,66.1,53.0,30.24,NNW,334,5.0,14.0,62,0.00,,,0.00,510,weatherlink.com 1.10,2013-12-18 15:23:00,
2013-12-18 10:38:00,66.7,52.0,30.24,NNW,331,4.0,12.0,60,0.00,,,0.00,536,weatherlink.com 1.10,2013-12-18 15:38:00,
2013-12-18 10:53:00,66.9,52.0,30.24,NNE,15,6.0,13.0,59,0.00,,,0.00,559,weatherlink.com 1.10,2013-12-18 15:53:00,
2013-12-18 11:08:00,67.2,52.0,30.24,NNE,22,5.0,14.0,59,0.00,,,0.00,580,weatherlink.com 1.10,2013-12-18 16:08:00,
2013-12-18 11:23:00,67.8,55.0,30.24,NNW,329,4.0,11.0,63,0.00,,,0.00,589,weatherlink.com 1.10,2013-12-18 16:23:00,
2013-12-18 11:38:00,68.2,56.0,30.24,NNW,338,4.0,13.0,66,0.00,,,0.00,608,weatherlink.com 1.10,2013-12-18 16:38:00,
2013-12-18 11:53:00,68.1,56.0,30.23,NNE,32,3.0,10.0,65,0.00,,,0.00,615,weatherlink.com 1.10,2013-12-18 16:53:00,
2013-12-18 12:08:00,67.9,56.0,30.23,NNW,340,4.0,10.0,67,0.00,,,0.00,621,weatherlink.com 1.10,2013-12-18 17:08:00,
2013-12-18 12:23:00,68.1,57.0,30.22,North,5,8.0,11.0,68,0.00,,,0.00,624,weatherlink.com 1.10,2013-12-18 17:23:00,
2013-12-18 12:38:00,67.7,56.0,30.22,NNE,15,5.0,10.0,66,0.00,,,0.00,624,weatherlink.com 1.10,2013-12-18 17:38:00,
2013-12-18 12:53:00,68.3,56.0,30.21,NNW,340,7.0,10.0,66,0.00,,,0.00,615,weatherlink.com 1.10,2013-12-18 17:53:00,
2013-12-18 13:08:00,68.1,57.0,30.20,North,350,4.0,11.0,67,0.00,,,0.00,599,weatherlink.com 1.10,2013-12-18 18:08:00,
2013-12-18 13:23:00,68.1,57.0,30.20,NNE,30,4.0,14.0,67,0.00,,,0.00,587,weatherlink.com 1.10,2013-12-18 18:23:00,
2013-12-18 13:38:00,67.9,57.0,30.19,North,355,5.0,12.0,69,0.00,,,0.00,561,weatherlink.com 1.10,2013-12-18 18:38:00,
2013-12-18 13:53:00,67.9,56.0,30.19,WNW,303,4.0,11.0,67,0.00,,,0.00,547,weatherlink.com 1.10,2013-12-18 18:53:00,
2013-12-18 14:08:00,68.1,57.0,30.19,North,10,3.0,12.0,67,0.00,,,0.00,520,weatherlink.com 1.10,2013-12-18 19:08:00,
2013-12-18 14:23:00,68.2,58.0,30.19,North,355,3.0,12.0,69,0.00,,,0.00,490,weatherlink.com 1.10,2013-12-18 19:23:00,
2013-12-18 14:38:00,68.1,58.0,30.18,NNW,327,5.0,12.0,69,0.00,,,0.00,459,weatherlink.com 1.10,2013-12-18 19:38:00,
2013-12-18 14:53:00,67.8,57.0,30.19,NNE,23,5.0,12.0,69,0.00,,,0.00,422,weatherlink.com 1.10,2013-12-18 19:53:00,
2013-12-18 15:08:00,67.8,58.0,30.19,North,355,4.0,10.0,70,0.00,,,0.00,385,weatherlink.com 1.10,2013-12-18 20:08:00,
2013-12-18 15:23:00,67.6,56.0,30.18,NW,306,4.0,11.0,67,0.00,,,0.00,345,weatherlink.com 1.10,2013-12-18 20:23:00,
2013-12-18 15:38:00,67.4,56.0,30.18,NW,326,8.0,11.0,68,0.00,,,0.00,304,weatherlink.com 1.10,2013-12-18 20:38:00,
2013-12-18 15:53:00,67.3,56.0,30.19,NNW,336,3.0,11.0,67,0.00,,,0.00,258,weatherlink.com 1.10,2013-12-18 20:53:00,
2013-12-18 16:08:00,67.0,57.0,30.19,North,351,3.0,10.0,70,0.00,,,0.00,206,weatherlink.com 1.10,2013-12-18 21:08:00,
2013-12-18 16:23:00,66.8,57.0,30.20,North,9,3.0,11.0,72,0.00,,,0.00,146,weatherlink.com 1.10,2013-12-18 21:23:00,
2013-12-18 16:38:00,66.8,58.0,30.20,NW,304,4.0,10.0,74,0.00,,,0.00,95,weatherlink.com 1.10,2013-12-18 21:38:00,
2013-12-18 16:53:00,66.1,58.0,30.20,NNE,17,4.0,10.0,75,0.00,,,0.00,32,weatherlink.com 1.10,2013-12-18 21:53:00,
2013-12-18 17:08:00,65.8,58.0,30.20,NNW,338,7.0,11.0,77,0.00,,,0.00,18,weatherlink.com 1.10,2013-12-18 22:08:00,
2013-12-18 17:23:00,65.4,58.0,30.20,NW,317,5.0,11.0,76,0.00,,,0.00,11,weatherlink.com 1.10,2013-12-18 22:23:00,
2013-12-18 17:38:00,65.3,58.0,30.20,NNW,337,3.0,13.0,78,0.00,,,0.00,0,weatherlink.com 1.10,2013-12-18 22:38:00,
2013-12-18 17:53:00,65.4,59.0,30.20,NW,304,3.0,9.0,79,0.00,,,0.00,0,weatherlink.com 1.10,2013-12-18 22:53:00,
2013-12-18 18:08:00,65.3,59.0,30.20,NW,313,6.0,13.0,79,0.00,,,0.00,0,weatherlink.com 1.10,2013-12-18 23:08:00,
2013-12-18 18:23:00,65.4,59.0,30.20,NW,315,5.0,9.0,79,0.00,,,0.00,0,weatherlink.com 1.10,2013-12-18 23:23:00,
2013-12-18 18:38:00,65.4,59.0,30.20,North,350,5.0,10.0,79,0.00,,,0.00,0,weatherlink.com 1.10,2013-12-18 23:38:00,
2013-12-18 18:53:00,65.6,59.0,30.21,NNE,13,3.0,10.0,79,0.00,,,0.00,0,weatherlink.com 1.10,2013-12-18 23:53:00,
2013-12-18 19:08:00,65.6,59.0,30.21,North,355,3.0,10.0,78,0.00,,,0.00,0,weatherlink.com 1.10,2013-12-19 00:08:00,
2013-12-18 19:23:00,65.5,58.0,30.21,North,5,4.0,13.0,77,0.00,,,0.00,0,weatherlink.com 1.10,2013-12-19 00:23:00,
2013-12-18 19:38:00,65.6,58.0,30.21,North,355,6.0,9.0,76,0.00,,,0.00,0,weatherlink.com 1.10,2013-12-19 00:38:00,
2013-12-18 19:53:00,65.9,57.0,30.21,North,11,6.0,9.0,74,0.00,,,0.00,0,weatherlink.com 1.10,2013-12-19 00:53:00,
2013-12-18 20:08:00,66.1,58.0,30.22,North,360,3.0,10.0,74,0.00,,,0.00,0,weatherlink.com 1.10,2013-12-19 01:08:00,
2013-12-18 20:23:00,66.2,57.0,30.22,NNE,23,3.0,11.0,71,0.00,,,0.00,0,weatherlink.com 1.10,2013-12-19 01:23:00,
2013-12-18 20:38:00,66.3,57.0,30.22,North,351,6.0,10.0,71,0.00,,,0.00,0,weatherlink.com 1.10,2013-12-19 01:38:00,
2013-12-18 20:53:00,66.5,56.0,30.23,ENE,71,5.0,10.0,70,0.00,,,0.00,0,weatherlink.com 1.10,2013-12-19 01:53:00,
2013-12-18 21:08:00,66.7,55.0,30.23,NNE,30,3.0,9.0,67,0.00,,,0.00,0,weatherlink.com 1.10,2013-12-19 02:08:00,
2013-12-18 21:23:00,66.5,54.0,30.23,North,355,2.0,10.0,65,0.00,,,0.00,0,weatherlink.com 1.10,2013-12-19 02:23:00,
2013-12-18 21:38:00,66.3,55.0,30.23,North,355,5.0,10.0,68,0.00,,,0.00,0,weatherlink.com 1.10,2013-12-19 02:38:00,
2013-12-18 21:53:00,66.4,57.0,30.23,NE,36,4.0,11.0,71,0.00,,,0.00,0,weatherlink.com 1.10,2013-12-19 02:53:00,
2013-12-18 22:08:00,66.1,56.0,30.23,NNE,17,3.0,11.0,69,0.00,,,0.00,0,weatherlink.com 1.10,2013-12-19 03:08:00,
2013-12-18 22:23:00,66.3,55.0,30.23,NE,45,4.0,10.0,66,0.00,,,0.00,0,weatherlink.com 1.10,2013-12-19 03:23:00,
2013-12-18 22:38:00,66.1,55.0,30.23,NNE,27,5.0,12.0,68,0.00,,,0.00,0,weatherlink.com 1.10,2013-12-19 03:38:00,
2013-12-18 22:53:00,66.2,55.0,30.23,NNW,333,4.0,11.0,67,0.00,,,0.00,0,weatherlink.com 1.10,2013-12-19 03:53:00,
2013-12-18 23:08:00,66.4,55.0,30.23,NE,51,7.0,11.0,66,0.00,,,0.00,0,weatherlink.com 1.10,2013-12-19 04:08:00,
2013-12-18 23:23:00,66.3,55.0,30.23,NE,34,4.0,9.0,67,0.00,,,0.00,0,weatherlink.com 1.10,2013-12-19 04:23:00,
2013-12-18 23:38:00,66.1,55.0,30.23,NE,34,2.0,11.0,67,0.00,,,0.00,0,weatherlink.com 1.10,2013-12-19 04:38:00,
2013-12-18 23:53:00,66.2,55.0,30.22,NNE,32,3.0,9.0,68,0.00,,,0.00,0,weatherlink.com 1.10,2013-12-19 04:53:00,